Overview Statistics Trail Chart Weather Telemetry Raw packets
 

This is the latest recevied weather packets stored in our database for station/object N8BAP. If no packets are shown the sender has not sent any weather packets the latest 10 day(s).

<< 102 103 104 105 106 107 108 >>
Time Temp. Humidity Pressure Rain* Wind** Luminosity Snow
1787852991 27.78° C 64% 1020.7 hPa 0 mm - 680 W/m² -
1787852686 27.78° C 62% 1020.7 hPa 0 mm - 688 W/m² -
1787852385 27.78° C 66% 1020.6 hPa 0 mm - 663 W/m² -
1787852084 27.78° C 63% 1020.8 hPa 0 mm - 666 W/m² -
1787851779 27.22° C 65% 1020.8 hPa 0 mm - 164 W/m² -
1787851474 27.78° C 63% 1020.7 hPa 0 mm - 157 W/m² -
1787851168 27.78° C 68% 1020.7 hPa 0 mm - 645 W/m² -
1787850865 27.78° C 65% 1020.8 hPa 0 mm - 631 W/m² -
1787850560 27.78° C 65% 1020.9 hPa 0 mm - 705 W/m² -
1787850254 27.22° C 67% 1020.7 hPa 0 mm - 665 W/m² -
1787849949 27.22° C 64% 1020.9 hPa 0 mm - 677 W/m² -
1787849649 26.67° C 66% 1020.8 hPa 0 mm - 688 W/m² -
1787849349 26.67° C 73% 1021 hPa 0 mm - 729 W/m² -
1787849043 26.67° C 69% 1021 hPa 0 mm - 301 W/m² -
1787848737 26.11° C 69% 1020.9 hPa 0 mm - 210 W/m² -
1787848432 26.11° C 71% 1020.8 hPa 0 mm - 210 W/m² -
1787848131 26.67° C 67% 1021 hPa 0 mm - 138 W/m² -
1787847826 26.67° C 72% 1020.9 hPa 0 mm - 691 W/m² -
1787847521 26.67° C 73% 1021 hPa 0 mm - 692 W/m² -
1787847217 26.67° C 72% 1020.8 hPa 0 mm - 651 W/m² -
1787846913 26.67° C 68% 1020.7 hPa 0 mm - 621 W/m² -
1787846613 26.67° C 72% 1020.9 hPa 0 mm - 680 W/m² -
1787846308 26.67° C 71% 1020.7 hPa 0 mm - 239 W/m² -
1787846004 26.67° C 73% 1020.8 hPa 0 mm - 668 W/m² -
1787845700 26.67° C 72% 1020.9 hPa 0 mm - 641 W/m² -

* Rain latest hour (hover to see other rain measurements)
** Current wind speed in m/s (hover to see current wind gust speed)